Time,TemperatureF,DewpointF,PressureIn,WindDirection,WindDirectionDegrees,WindSpeedMPH,WindSpeedGustMPH,Humidity,HourlyPrecipIn,Conditions,Clouds,dailyrainin,SoftwareType,DateUTC
2013-01-05 00:00:00,61.3,59.6,30.25,NNW,342,0.0,4.0,94,0.00,,---,0.01,VWS V14.01,2013-01-05 05:00:00,
2013-01-05 00:01:00,61.3,59.6,30.25,NW,323,1.0,4.0,94,0.00,,---,0.01,VWS V14.01,2013-01-05 05:01:00,
2013-01-05 00:06:00,61.3,59.6,30.25,NNW,330,0.0,2.0,94,0.00,,---,0.00,VWS V14.01,2013-01-05 05:06:00,
2013-01-05 00:11:00,61.3,59.6,30.25,West,266,0.0,2.0,94,0.00,,---,0.00,VWS V14.01,2013-01-05 05:11:00,
2013-01-05 00:16:00,61.3,59.6,30.25,NW,321,2.0,2.0,94,0.00,,---,0.00,VWS V14.01,2013-01-05 05:16:00,
2013-01-05 00:21:00,61.3,59.6,30.25,NNE,26,1.0,2.0,94,0.00,,---,0.00,VWS V14.01,2013-01-05 05:21:00,
2013-01-05 00:26:00,61.3,59.6,30.25,NNW,346,1.0,2.0,94,0.00,,---,0.00,VWS V14.01,2013-01-05 05:26:00,
2013-01-05 00:31:00,61.3,59.6,30.25,NE,37,0.0,2.0,94,0.00,,---,0.00,VWS V14.01,2013-01-05 05:31:00,
2013-01-05 00:36:00,61.3,59.6,30.25,NE,40,0.0,4.0,94,0.00,,---,0.00,VWS V14.01,2013-01-05 05:36:00,
2013-01-05 00:41:00,61.3,59.6,30.25,NW,316,1.0,4.0,94,0.00,,---,0.00,VWS V14.01,2013-01-05 05:41:00,
2013-01-05 00:46:00,61.3,59.6,30.25,NNE,23,2.0,4.0,94,0.00,,---,0.00,VWS V14.01,2013-01-05 05:46:00,
2013-01-05 00:51:00,61.3,59.6,30.26,NNW,343,1.0,5.0,94,0.00,,---,0.00,VWS V14.01,2013-01-05 05:51:00,
2013-01-05 00:57:00,61.3,59.6,30.25,NNW,344,1.0,5.0,94,0.00,,---,0.00,VWS V14.01,2013-01-05 05:57:00,
2013-01-05 01:02:00,61.3,59.9,30.25,North,358,2.0,2.0,95,0.00,,---,0.00,VWS V14.01,2013-01-05 06:02:00,
2013-01-05 01:07:00,61.2,59.8,30.26,WNW,289,3.0,3.0,95,0.00,,---,0.00,VWS V14.01,2013-01-05 06:07:00,
2013-01-05 01:12:00,61.2,59.8,30.25,North,355,0.0,5.0,95,0.00,,---,0.00,VWS V14.01,2013-01-05 06:12:00,
2013-01-05 01:17:00,61.2,59.8,30.25,NNE,32,3.0,5.0,95,0.00,,---,0.00,VWS V14.01,2013-01-05 06:17:00,
2013-01-05 01:22:00,61.2,59.5,30.25,ESE,121,2.0,5.0,94,0.00,,---,0.00,VWS V14.01,2013-01-05 06:22:00,
2013-01-05 01:27:00,61.2,59.5,30.25,NNE,22,0.0,5.0,94,0.00,,---,0.00,VWS V14.01,2013-01-05 06:27:00,
2013-01-05 01:32:00,61.1,59.4,30.25,NNE,18,2.0,2.0,94,0.00,,---,0.00,VWS V14.01,2013-01-05 06:32:00,
2013-01-05 01:37:00,61.1,59.4,30.25,NNW,334,1.0,2.0,94,0.00,,---,0.00,VWS V14.01,2013-01-05 06:37:00,
2013-01-05 01:42:00,61.1,59.4,30.25,NNW,335,1.0,4.0,94,0.00,,---,0.00,VWS V14.01,2013-01-05 06:42:00,
2013-01-05 01:47:00,61.1,59.4,30.24,NNW,335,1.0,4.0,94,0.00,,---,0.00,VWS V14.01,2013-01-05 06:47:00,
2013-01-05 01:52:00,61.1,59.4,30.25,West,271,1.0,4.0,94,0.00,,---,0.00,VWS V14.01,2013-01-05 06:52:00,
2013-01-05 01:57:00,61.2,59.5,30.25,North,1,2.0,4.0,94,0.00,,---,0.00,VWS V14.01,2013-01-05 06:57:00,
2013-01-05 02:03:00,61.1,59.1,30.25,NNW,347,0.0,1.0,93,0.00,,---,0.00,VWS V14.01,2013-01-05 07:03:00,
2013-01-05 02:08:00,61.0,59.0,30.25,WNW,302,0.0,2.0,93,0.00,,---,0.00,VWS V14.01,2013-01-05 07:08:00,
2013-01-05 02:13:00,60.9,58.9,30.25,NW,318,2.0,2.0,93,0.00,,---,0.00,VWS V14.01,2013-01-05 07:13:00,
2013-01-05 02:18:00,60.8,58.8,30.25,NNW,328,1.0,2.0,93,0.00,,---,0.00,VWS V14.01,2013-01-05 07:18:00,
2013-01-05 02:23:00,60.7,58.7,30.25,NNW,335,1.0,6.0,93,0.00,,---,0.00,VWS V14.01,2013-01-05 07:23:00,
2013-01-05 02:28:00,60.5,58.5,30.25,North,4,1.0,6.0,93,0.00,,---,0.00,VWS V14.01,2013-01-05 07:28:00,
2013-01-05 02:33:00,60.5,58.5,30.25,WNW,302,1.0,3.0,93,0.00,,---,0.00,VWS V14.01,2013-01-05 07:33:00,
2013-01-05 02:38:00,60.5,58.5,30.25,WNW,293,0.0,3.0,93,0.00,,---,0.00,VWS V14.01,2013-01-05 07:38:00,
2013-01-05 02:43:00,60.5,58.5,30.25,WNW,291,0.0,3.0,93,0.00,,---,0.00,VWS V14.01,2013-01-05 07:43:00,
2013-01-05 02:49:00,60.5,58.5,30.25,NNE,20,0.0,3.0,93,0.00,,---,0.00,VWS V14.01,2013-01-05 07:49:00,
2013-01-05 02:54:00,60.4,58.4,30.25,NNW,335,0.0,4.0,93,0.00,,---,0.00,VWS V14.01,2013-01-05 07:54:00,
2013-01-05 02:59:00,60.4,58.4,30.25,NNW,345,1.0,4.0,93,0.00,,---,0.00,VWS V14.01,2013-01-05 07:59:00,
2013-01-05 03:04:00,60.4,58.4,30.24,WNW,293,0.0,1.0,93,0.00,,---,0.00,VWS V14.01,2013-01-05 08:04:00,
2013-01-05 03:09:00,60.4,58.1,30.24,NE,43,1.0,3.0,92,0.00,,---,0.00,VWS V14.01,2013-01-05 08:09:00,
2013-01-05 03:14:00,60.5,58.2,30.24,North,354,3.0,3.0,92,0.00,,---,0.00,VWS V14.01,2013-01-05 08:14:00,
2013-01-05 03:19:00,60.5,58.2,30.24,NE,44,1.0,3.0,92,0.00,,---,0.00,VWS V14.01,2013-01-05 08:19:00,
2013-01-05 03:24:00,60.5,57.9,30.24,NNE,13,2.0,3.0,91,0.00,,---,0.00,VWS V14.01,2013-01-05 08:24:00,
2013-01-05 03:29:00,60.6,58.0,30.24,NW,317,1.0,3.0,91,0.00,,---,0.00,VWS V14.01,2013-01-05 08:29:00,
2013-01-05 03:34:00,60.6,58.0,30.24,NNE,22,0.0,2.0,91,0.00,,---,0.00,VWS V14.01,2013-01-05 08:34:00,
2013-01-05 03:39:00,60.6,58.0,30.24,NE,41,1.0,2.0,91,0.00,,---,0.00,VWS V14.01,2013-01-05 08:39:00,
2013-01-05 03:44:00,60.6,58.0,30.24,North,352,1.0,2.0,91,0.00,,---,0.00,VWS V14.01,2013-01-05 08:44:00,
2013-01-05 03:50:00,60.6,58.0,30.24,East,86,1.0,2.0,91,0.00,,---,0.00,VWS V14.01,2013-01-05 08:50:00,
2013-01-05 03:55:00,60.6,58.0,30.24,WNW,302,1.0,2.0,91,0.00,,---,0.00,VWS V14.01,2013-01-05 08:55:00,
2013-01-05 04:00:00,60.6,58.0,30.23,NW,316,0.0,2.0,91,0.00,,---,0.00,VWS V14.01,2013-01-05 09:00:00,
2013-01-05 04:05:00,60.6,58.0,30.24,West,281,1.0,1.0,91,0.00,,---,0.00,VWS V14.01,2013-01-05 09:05:00,
2013-01-05 04:10:00,60.7,58.1,30.23,ENE,58,1.0,2.0,91,0.00,,---,0.00,VWS V14.01,2013-01-05 09:10:00,
2013-01-05 04:15:00,60.7,58.1,30.23,NNW,332,0.0,2.0,91,0.00,,---,0.00,VWS V14.01,2013-01-05 09:15:00,
2013-01-05 04:20:00,60.7,58.1,30.23,NNE,26,0.0,2.0,91,0.00,,---,0.00,VWS V14.01,2013-01-05 09:20:00,
2013-01-05 04:25:00,60.7,58.1,30.23,North,350,0.0,2.0,91,0.00,,---,0.00,VWS V14.01,2013-01-05 09:25:00,
2013-01-05 04:30:00,60.7,58.1,30.23,NNW,339,0.0,2.0,91,0.00,,---,0.00,VWS V14.01,2013-01-05 09:30:00,
2013-01-05 04:36:00,60.8,58.2,30.23,North,349,0.0,1.0,91,0.00,,---,0.00,VWS V14.01,2013-01-05 09:36:00,
2013-01-05 04:41:00,60.8,58.2,30.23,NNW,332,2.0,2.0,91,0.00,,---,0.00,VWS V14.01,2013-01-05 09:41:00,
2013-01-05 04:46:00,60.9,58.3,30.24,NNE,19,0.0,4.0,91,0.00,,---,0.00,VWS V14.01,2013-01-05 09:46:00,
2013-01-05 04:51:00,61.0,58.0,30.24,NW,305,0.0,4.0,90,0.00,,---,0.00,VWS V14.01,2013-01-05 09:51:00,
2013-01-05 04:56:00,61.1,58.2,30.24,WNW,291,2.0,4.0,90,0.00,,---,0.00,VWS V14.01,2013-01-05 09:56:00,
2013-01-05 05:01:00,61.2,58.2,30.24,North,9,1.0,4.0,90,0.00,,---,0.00,VWS V14.01,2013-01-05 10:01:00,
2013-01-05 05:06:00,61.2,58.2,30.24,NNW,338,0.0,3.0,90,0.00,,---,0.00,VWS V14.01,2013-01-05 10:06:00,
2013-01-05 05:11:00,61.3,58.0,30.24,NNW,340,1.0,4.0,89,0.00,,---,0.00,VWS V14.01,2013-01-05 10:11:00,
2013-01-05 05:16:00,61.3,58.0,30.24,NE,41,2.0,4.0,89,0.00,,---,0.00,VWS V14.01,2013-01-05 10:16:00,
2013-01-05 05:21:00,61.4,57.8,30.24,ENE,70,1.0,4.0,88,0.00,,---,0.00,VWS V14.01,2013-01-05 10:21:00,
2013-01-05 05:26:00,61.4,57.8,30.24,NNW,332,1.0,4.0,88,0.00,,---,0.00,VWS V14.01,2013-01-05 10:26:00,
2013-01-05 05:31:00,61.4,57.8,30.24,North,11,0.0,4.0,88,0.00,,---,0.00,VWS V14.01,2013-01-05 10:31:00,
2013-01-05 05:36:00,61.4,58.1,30.24,North,350,0.0,1.0,89,0.00,,---,0.00,VWS V14.01,2013-01-05 10:36:00,
2013-01-05 05:41:00,61.4,58.1,30.24,NW,314,0.0,2.0,89,0.00,,---,0.00,VWS V14.01,2013-01-05 10:41:00,
2013-01-05 05:46:00,61.3,58.0,30.24,WNW,296,1.0,2.0,89,0.00,,---,0.00,VWS V14.01,2013-01-05 10:46:00,
2013-01-05 05:51:00,61.3,58.0,30.24,NW,325,0.0,2.0,89,0.00,,---,0.00,VWS V14.01,2013-01-05 10:51:00,
2013-01-05 05:57:00,61.3,58.0,30.24,North,353,1.0,2.0,89,0.00,,---,0.00,VWS V14.01,2013-01-05 10:57:00,
2013-01-05 06:02:00,61.3,58.0,30.25,NNW,328,0.0,0.0,89,0.00,,---,0.00,VWS V14.01,2013-01-05 11:02:00,
2013-01-05 06:07:00,61.2,57.9,30.25,NW,321,0.0,1.0,89,0.00,,---,0.00,VWS V14.01,2013-01-05 11:07:00,
2013-01-05 06:12:00,61.1,57.8,30.25,NNW,345,1.0,1.0,89,0.00,,---,0.00,VWS V14.01,2013-01-05 11:12:00,
2013-01-05 06:17:00,61.0,57.7,30.25,WSW,257,0.0,1.0,89,0.00,,---,0.00,VWS V14.01,2013-01-05 11:17:00,
2013-01-05 06:22:00,61.0,58.0,30.25,WSW,257,0.0,1.0,90,0.00,,---,0.00,VWS V14.01,2013-01-05 11:22:00,
2013-01-05 06:27:00,60.9,58.0,30.25,WSW,257,0.0,1.0,90,0.00,,---,0.00,VWS V14.01,2013-01-05 11:27:00,
2013-01-05 06:32:00,60.7,57.8,30.26,West,269,0.0,0.0,90,0.00,,---,0.00,VWS V14.01,2013-01-05 11:32:00,
2013-01-05 06:37:00,60.6,57.7,30.26,NNW,343,0.0,3.0,90,0.00,,---,0.00,VWS V14.01,2013-01-05 11:37:00,
2013-01-05 06:42:00,60.5,57.6,30.26,WNW,293,0.0,3.0,90,0.00,,---,0.00,VWS V14.01,2013-01-05 11:42:00,
2013-01-05 06:47:00,60.5,57.6,30.26,WNW,295,0.0,3.0,90,0.00,,---,0.00,VWS V14.01,2013-01-05 11:47:00,
2013-01-05 06:52:00,60.4,57.5,30.26,North,5,0.0,3.0,90,0.00,,---,0.00,VWS V14.01,2013-01-05 11:52:00,
2013-01-05 06:57:00,60.4,57.5,30.26,North,358,0.0,3.0,90,0.00,,---,0.00,VWS V14.01,2013-01-05 11:57:00,
2013-01-05 07:02:00,60.3,57.4,30.26,NNW,339,0.0,2.0,90,0.00,,---,0.00,VWS V14.01,2013-01-05 12:02:00,
2013-01-05 07:07:00,60.1,57.2,30.26,NNW,333,0.0,3.0,90,0.00,,---,0.00,VWS V14.01,2013-01-05 12:07:00,
2013-01-05 07:12:00,59.9,57.0,30.26,NNW,345,0.0,3.0,90,0.00,,---,0.00,VWS V14.01,2013-01-05 12:12:00,
2013-01-05 07:17:00,59.9,57.3,30.27,NNW,340,0.0,3.0,91,0.00,,---,0.00,VWS V14.01,2013-01-05 12:17:00,
2013-01-05 07:22:00,59.8,57.2,30.27,NNW,339,0.0,3.0,91,0.00,,---,0.00,VWS V14.01,2013-01-05 12:22:00,
2013-01-05 07:27:00,59.7,57.1,30.27,NNW,330,0.0,3.0,91,0.00,,---,0.00,VWS V14.01,2013-01-05 12:27:00,
2013-01-05 07:32:00,59.7,57.1,30.27,NNW,328,0.0,0.0,91,0.00,,---,0.00,VWS V14.01,2013-01-05 12:32:00,
2013-01-05 07:38:00,59.7,57.1,30.27,North,352,0.0,1.0,91,0.00,,---,0.00,VWS V14.01,2013-01-05 12:38:00,
2013-01-05 07:43:00,59.8,57.2,30.27,NW,321,0.0,1.0,91,0.00,,---,0.00,VWS V14.01,2013-01-05 12:43:00,
2013-01-05 07:48:00,59.9,57.3,30.27,NNE,15,0.0,2.0,91,0.00,,---,0.00,VWS V14.01,2013-01-05 12:48:00,
2013-01-05 07:53:00,60.0,57.1,30.28,North,350,1.0,2.0,90,0.00,,---,0.00,VWS V14.01,2013-01-05 12:53:00,
2013-01-05 07:58:00,60.0,57.1,30.28,NNW,345,1.0,2.0,90,0.00,,---,0.00,VWS V14.01,2013-01-05 12:58:00,
2013-01-05 08:03:00,60.1,57.2,30.28,North,353,0.0,1.0,90,0.00,,---,0.00,VWS V14.01,2013-01-05 13:03:00,
2013-01-05 08:08:00,60.2,57.3,30.28,NW,325,0.0,2.0,90,0.00,,---,0.00,VWS V14.01,2013-01-05 13:08:00,
2013-01-05 08:13:00,60.2,57.0,30.28,NNW,333,0.0,2.0,89,0.00,,---,0.00,VWS V14.01,2013-01-05 13:13:00,
2013-01-05 08:18:00,60.2,57.3,30.28,NNW,339,1.0,2.0,90,0.00,,---,0.00,VWS V14.01,2013-01-05 13:18:00,
2013-01-05 08:23:00,60.2,57.3,30.28,NNE,22,1.0,3.0,90,0.00,,---,0.00,VWS V14.01,2013-01-05 13:23:00,
2013-01-05 08:28:00,60.4,57.5,30.28,NNW,332,0.0,3.0,90,0.00,,---,0.00,VWS V14.01,2013-01-05 13:28:00,
2013-01-05 08:33:00,60.6,57.3,30.28,ENE,61,1.0,2.0,89,0.00,,---,0.00,VWS V14.01,2013-01-05 13:33:00,
2013-01-05 08:38:00,60.8,57.5,30.28,NNW,338,0.0,2.0,89,0.00,,---,0.00,VWS V14.01,2013-01-05 13:38:00,
2013-01-05 08:43:00,61.0,57.7,30.28,NNW,334,1.0,2.0,89,0.00,,---,0.00,VWS V14.01,2013-01-05 13:43:00,
2013-01-05 08:49:00,61.3,57.7,30.28,NNW,338,1.0,3.0,88,0.00,,---,0.00,VWS V14.01,2013-01-05 13:49:00,
2013-01-05 08:54:00,61.8,58.2,30.28,ENE,60,0.0,3.0,88,0.00,,---,0.00,VWS V14.01,2013-01-05 13:54:00,
2013-01-05 08:59:00,62.3,58.1,30.28,NNE,26,1.0,3.0,86,0.00,,---,0.00,VWS V14.01,2013-01-05 13:59:00,
2013-01-05 09:04:00,62.9,58.3,30.27,NNW,334,2.0,3.0,85,0.00,,---,0.00,VWS V14.01,2013-01-05 14:04:00,
2013-01-05 09:09:00,63.3,58.4,30.27,NE,40,1.0,5.0,84,0.00,,---,0.00,VWS V14.01,2013-01-05 14:09:00,
2013-01-05 09:14:00,63.8,58.5,30.27,NW,316,0.0,5.0,83,0.00,,---,0.00,VWS V14.01,2013-01-05 14:14:00,
2013-01-05 09:19:00,64.3,59.0,30.28,North,5,2.0,5.0,83,0.00,,---,0.00,VWS V14.01,2013-01-05 14:19:00,
2013-01-05 09:24:00,64.9,58.9,30.28,NE,56,4.0,5.0,81,0.00,,---,0.00,VWS V14.01,2013-01-05 14:24:00,
2013-01-05 09:29:00,65.6,59.3,30.28,NNE,33,1.0,5.0,80,0.00,,---,0.00,VWS V14.01,2013-01-05 14:29:00,
2013-01-05 09:34:00,66.3,59.2,30.28,NNE,29,1.0,6.0,78,0.00,,---,0.00,VWS V14.01,2013-01-05 14:34:00,
2013-01-05 09:39:00,67.1,59.7,30.28,North,5,1.0,7.0,77,0.00,,---,0.00,VWS V14.01,2013-01-05 14:39:00,
2013-01-05 09:44:00,67.8,59.6,30.28,NW,325,1.0,7.0,75,0.00,,---,0.00,VWS V14.01,2013-01-05 14:44:00,
2013-01-05 09:49:00,68.1,59.5,30.28,NW,305,2.0,7.0,74,0.00,,---,0.00,VWS V14.01,2013-01-05 14:49:00,
2013-01-05 09:54:00,68.3,59.3,30.28,NE,37,1.0,8.0,73,0.00,,---,0.00,VWS V14.01,2013-01-05 14:54:00,
2013-01-05 09:59:00,68.7,60.1,30.28,NW,308,1.0,8.0,74,0.00,,---,0.00,VWS V14.01,2013-01-05 14:59:00,
2013-01-05 10:04:00,69.0,60.0,30.28,NNE,12,1.0,6.0,73,0.00,,---,0.00,VWS V14.01,2013-01-05 15:04:00,
2013-01-05 10:09:00,69.3,60.3,30.28,NNE,20,4.0,9.0,73,0.00,,---,0.00,VWS V14.01,2013-01-05 15:09:00,
2013-01-05 10:15:00,69.4,60.4,30.28,NNE,26,5.0,9.0,73,0.00,,---,0.00,VWS V14.01,2013-01-05 15:15:00,
2013-01-05 10:20:00,69.4,60.4,30.28,NE,44,8.0,10.0,73,0.00,,---,0.00,VWS V14.01,2013-01-05 15:20:00,
2013-01-05 10:25:00,69.7,60.7,30.28,NE,37,7.0,12.0,73,0.00,,---,0.00,VWS V14.01,2013-01-05 15:25:00,
2013-01-05 10:30:00,69.8,60.8,30.28,East,82,1.0,12.0,73,0.00,,---,0.00,VWS V14.01,2013-01-05 15:30:00,
2013-01-05 10:35:00,70.3,61.2,30.28,NNW,336,1.0,4.0,73,0.00,,---,0.00,VWS V14.01,2013-01-05 15:35:00,
2013-01-05 10:40:00,70.6,61.1,30.28,West,262,2.0,5.0,72,0.00,,---,0.00,VWS V14.01,2013-01-05 15:40:00,
2013-01-05 10:45:00,70.7,61.2,30.28,NW,307,2.0,5.0,72,0.00,,---,0.00,VWS V14.01,2013-01-05 15:45:00,
2013-01-05 10:50:00,70.9,61.4,30.28,ENE,63,5.0,6.0,72,0.00,,---,0.00,VWS V14.01,2013-01-05 15:50:00,
2013-01-05 10:55:00,71.3,62.2,30.28,East,86,6.0,7.0,73,0.00,,---,0.00,VWS V14.01,2013-01-05 15:55:00,
2013-01-05 11:00:00,71.1,62.0,30.28,NE,45,5.0,11.0,73,0.00,,---,0.00,VWS V14.01,2013-01-05 16:00:00,
2013-01-05 11:05:00,71.5,62.4,30.27,NNE,33,2.0,8.0,73,0.00,,---,0.00,VWS V14.01,2013-01-05 16:05:00,
2013-01-05 11:10:00,71.8,62.3,30.27,NNE,29,1.0,8.0,72,0.00,,---,0.00,VWS V14.01,2013-01-05 16:10:00,
2013-01-05 11:16:00,72.2,63.1,30.27,ENE,61,4.0,8.0,73,0.00,,---,0.00,VWS V14.01,2013-01-05 16:16:00,
2013-01-05 11:21:00,72.4,62.9,30.27,NE,47,6.0,8.0,72,0.00,,---,0.00,VWS V14.01,2013-01-05 16:21:00,
2013-01-05 11:26:00,72.2,62.7,30.26,North,355,2.0,13.0,72,0.00,,---,0.00,VWS V14.01,2013-01-05 16:26:00,
2013-01-05 11:31:00,72.3,63.2,30.26,NE,51,6.0,13.0,73,0.00,,---,0.00,VWS V14.01,2013-01-05 16:31:00,
2013-01-05 11:36:00,72.6,63.8,30.26,NE,36,1.0,9.0,74,0.00,,---,0.00,VWS V14.01,2013-01-05 16:36:00,
2013-01-05 11:41:00,73.0,63.8,30.26,NE,41,2.0,10.0,73,0.00,,---,0.00,VWS V14.01,2013-01-05 16:41:00,
2013-01-05 11:46:00,73.0,63.8,30.26,NNE,19,5.0,10.0,73,0.00,,---,0.00,VWS V14.01,2013-01-05 16:46:00,
2013-01-05 11:51:00,72.7,63.9,30.26,ENE,58,6.0,14.0,74,0.00,,---,0.00,VWS V14.01,2013-01-05 16:51:00,
2013-01-05 11:56:00,72.6,63.8,30.25,NE,47,7.0,14.0,74,0.00,,---,0.00,VWS V14.01,2013-01-05 16:56:00,
2013-01-05 12:01:00,72.5,64.1,30.25,North,349,4.0,14.0,75,0.00,,---,0.00,VWS V14.01,2013-01-05 17:01:00,
2013-01-05 12:06:00,72.8,64.0,30.24,East,79,5.0,12.0,74,0.00,,---,0.00,VWS V14.01,2013-01-05 17:06:00,
2013-01-05 12:11:00,73.0,64.6,30.24,NE,48,7.0,14.0,75,0.00,,---,0.00,VWS V14.01,2013-01-05 17:11:00,
2013-01-05 12:16:00,73.1,64.7,30.24,ENE,70,6.0,14.0,75,0.00,,---,0.00,VWS V14.01,2013-01-05 17:16:00,
2013-01-05 12:21:00,73.7,64.9,30.23,ENE,59,5.0,14.0,74,0.00,,---,0.00,VWS V14.01,2013-01-05 17:21:00,
2013-01-05 12:26:00,73.9,65.5,30.23,North,4,1.0,14.0,75,0.00,,---,0.00,VWS V14.01,2013-01-05 17:26:00,
2013-01-05 12:31:00,74.3,65.1,30.23,NNW,334,4.0,14.0,73,0.00,,---,0.00,VWS V14.01,2013-01-05 17:31:00,
2013-01-05 12:36:00,74.0,64.8,30.23,NE,44,6.0,11.0,73,0.00,,---,0.00,VWS V14.01,2013-01-05 17:36:00,
2013-01-05 12:41:00,73.6,65.2,30.22,East,86,3.0,13.0,75,0.00,,---,0.00,VWS V14.01,2013-01-05 17:41:00,
2013-01-05 12:46:00,73.4,65.0,30.22,North,350,1.0,13.0,75,0.00,,---,0.00,VWS V14.01,2013-01-05 17:46:00,
2013-01-05 12:51:00,73.7,65.3,30.22,NNE,29,4.0,13.0,75,0.00,,---,0.00,VWS V14.01,2013-01-05 17:51:00,
2013-01-05 12:56:00,73.8,65.4,30.21,NNE,26,4.0,11.0,75,0.00,,---,0.00,VWS V14.01,2013-01-05 17:56:00,
2013-01-05 13:01:00,73.7,65.3,30.21,NNE,33,7.0,12.0,75,0.00,,---,0.00,VWS V14.01,2013-01-05 18:01:00,
2013-01-05 13:07:00,73.7,65.3,30.21,NNE,30,3.0,14.0,75,0.00,,---,0.00,VWS V14.01,2013-01-05 18:07:00,
2013-01-05 13:12:00,73.4,65.0,30.21,NE,37,4.0,14.0,75,0.00,,---,0.00,VWS V14.01,2013-01-05 18:12:00,
2013-01-05 13:17:00,73.4,65.4,30.21,ENE,75,7.0,14.0,76,0.00,,---,0.00,VWS V14.01,2013-01-05 18:17:00,
2013-01-05 13:22:00,73.1,65.5,30.20,NE,54,10.0,14.0,77,0.00,,---,0.00,VWS V14.01,2013-01-05 18:22:00,
2013-01-05 13:27:00,73.0,65.4,30.20,NE,54,6.0,14.0,77,0.00,,---,0.00,VWS V14.01,2013-01-05 18:27:00,
2013-01-05 13:32:00,72.6,65.3,30.20,NE,48,3.0,7.0,78,0.00,,---,0.00,VWS V14.01,2013-01-05 18:32:00,
2013-01-05 13:37:00,72.6,65.7,30.20,ENE,75,3.0,13.0,79,0.00,,---,0.00,VWS V14.01,2013-01-05 18:37:00,
2013-01-05 13:42:00,72.6,65.7,30.20,NE,38,6.0,13.0,79,0.00,,---,0.00,VWS V14.01,2013-01-05 18:42:00,
2013-01-05 13:47:00,72.6,65.7,30.20,NE,47,3.0,13.0,79,0.00,,---,0.00,VWS V14.01,2013-01-05 18:47:00,
2013-01-05 13:52:00,72.5,65.6,30.20,NE,54,5.0,13.0,79,0.00,,---,0.00,VWS V14.01,2013-01-05 18:52:00,
2013-01-05 13:57:00,72.8,65.9,30.20,ENE,61,3.0,13.0,79,0.00,,---,0.00,VWS V14.01,2013-01-05 18:57:00,
2013-01-05 14:02:00,73.0,66.1,30.20,ENE,70,2.0,8.0,79,0.00,,---,0.00,VWS V14.01,2013-01-05 19:02:00,
2013-01-05 14:08:00,73.8,66.9,30.19,North,5,4.0,8.0,79,0.00,,---,0.00,VWS V14.01,2013-01-05 19:08:00,
2013-01-05 14:13:00,73.8,66.5,30.19,NNW,328,3.0,9.0,78,0.00,,---,0.00,VWS V14.01,2013-01-05 19:13:00,
2013-01-05 14:18:00,73.6,66.7,30.19,East,79,4.0,11.0,79,0.00,,---,0.00,VWS V14.01,2013-01-05 19:18:00,
2013-01-05 14:23:00,73.5,67.0,30.19,NNE,33,3.0,12.0,80,0.00,,---,0.00,VWS V14.01,2013-01-05 19:23:00,
2013-01-05 14:28:00,73.7,67.2,30.19,NNE,33,2.0,12.0,80,0.00,,---,0.00,VWS V14.01,2013-01-05 19:28:00,
2013-01-05 14:33:00,74.0,67.4,30.19,East,94,3.0,4.0,80,0.00,,---,0.00,VWS V14.01,2013-01-05 19:33:00,
2013-01-05 14:38:00,73.9,67.0,30.19,NE,48,11.0,12.0,79,0.00,,---,0.00,VWS V14.01,2013-01-05 19:38:00,
2013-01-05 14:43:00,73.7,67.2,30.19,NNE,15,3.0,12.0,80,0.00,,---,0.00,VWS V14.01,2013-01-05 19:43:00,
2013-01-05 14:48:00,73.4,67.2,30.19,ENE,63,4.0,12.0,81,0.00,,---,0.00,VWS V14.01,2013-01-05 19:48:00,
2013-01-05 14:53:00,73.2,67.0,30.19,NNE,23,1.0,12.0,81,0.00,,---,0.00,VWS V14.01,2013-01-05 19:53:00,
2013-01-05 14:59:00,73.1,67.3,30.19,NE,46,4.0,12.0,82,0.00,,---,0.00,VWS V14.01,2013-01-05 19:59:00,
2013-01-05 15:04:00,73.0,67.2,30.19,ENE,58,1.0,5.0,82,0.00,,---,0.00,VWS V14.01,2013-01-05 20:04:00,
2013-01-05 15:09:00,73.0,67.2,30.19,ENE,77,3.0,9.0,82,0.00,,---,0.00,VWS V14.01,2013-01-05 20:09:00,
2013-01-05 15:14:00,72.9,67.1,30.19,NE,39,5.0,9.0,82,0.00,,---,0.00,VWS V14.01,2013-01-05 20:14:00,
2013-01-05 15:19:00,72.8,67.0,30.19,NE,40,4.0,9.0,82,0.00,,---,0.00,VWS V14.01,2013-01-05 20:19:00,
2013-01-05 15:24:00,72.8,67.3,30.19,ENE,77,1.0,9.0,83,0.00,,---,0.00,VWS V14.01,2013-01-05 20:24:00,
2013-01-05 15:29:00,72.8,67.3,30.19,NE,50,3.0,9.0,83,0.00,,---,0.00,VWS V14.01,2013-01-05 20:29:00,
2013-01-05 15:34:00,72.7,67.2,30.19,ENE,70,2.0,5.0,83,0.00,,---,0.00,VWS V14.01,2013-01-05 20:34:00,
2013-01-05 15:39:00,72.6,67.2,30.20,NNE,23,2.0,5.0,83,0.00,,---,0.00,VWS V14.01,2013-01-05 20:39:00,
2013-01-05 15:44:00,72.6,67.5,30.20,NNE,23,3.0,5.0,84,0.00,,---,0.00,VWS V14.01,2013-01-05 20:44:00,
2013-01-05 15:50:00,72.5,67.4,30.20,ENE,66,8.0,9.0,84,0.00,,---,0.00,VWS V14.01,2013-01-05 20:50:00,
2013-01-05 15:55:00,72.4,67.3,30.19,ENE,65,5.0,9.0,84,0.00,,---,0.00,VWS V14.01,2013-01-05 20:55:00,
2013-01-05 16:00:00,72.4,67.3,30.19,ENE,63,1.0,9.0,84,0.00,,---,0.00,VWS V14.01,2013-01-05 21:00:00,
2013-01-05 16:05:00,72.5,67.4,30.19,NE,47,1.0,3.0,84,0.00,,---,0.00,VWS V14.01,2013-01-05 21:05:00,
2013-01-05 16:10:00,72.4,67.3,30.19,NNW,338,1.0,4.0,84,0.00,,---,0.00,VWS V14.01,2013-01-05 21:10:00,
2013-01-05 16:15:00,72.4,67.3,30.20,NE,45,2.0,4.0,84,0.00,,---,0.00,VWS V14.01,2013-01-05 21:15:00,
2013-01-05 16:20:00,72.4,67.6,30.20,ENE,75,5.0,6.0,85,0.00,,---,0.00,VWS V14.01,2013-01-05 21:20:00,
2013-01-05 16:25:00,72.4,67.6,30.20,NE,50,7.0,7.0,85,0.00,,---,0.00,VWS V14.01,2013-01-05 21:25:00,
2013-01-05 16:30:00,72.3,67.5,30.20,NE,55,4.0,7.0,85,0.00,,---,0.00,VWS V14.01,2013-01-05 21:30:00,
2013-01-05 16:36:00,72.3,67.5,30.20,NE,55,1.0,6.0,85,0.00,,---,0.00,VWS V14.01,2013-01-05 21:36:00,
2013-01-05 16:41:00,72.3,67.5,30.19,NW,314,1.0,6.0,85,0.00,,---,0.00,VWS V14.01,2013-01-05 21:41:00,
2013-01-05 16:46:00,72.1,67.3,30.20,WNW,288,1.0,6.0,85,0.00,,---,0.00,VWS V14.01,2013-01-05 21:46:00,
2013-01-05 16:51:00,71.9,67.2,30.20,NNW,335,1.0,6.0,85,0.00,,---,0.00,VWS V14.01,2013-01-05 21:51:00,
2013-01-05 16:56:00,71.9,67.2,30.20,NE,56,1.0,6.0,85,0.00,,---,0.00,VWS V14.01,2013-01-05 21:56:00,
2013-01-05 17:01:00,71.7,67.3,30.20,NNE,22,0.0,6.0,86,0.00,,---,0.00,VWS V14.01,2013-01-05 22:01:00,
2013-01-05 17:06:00,71.6,67.2,30.20,NW,311,0.0,3.0,86,0.00,,---,0.00,VWS V14.01,2013-01-05 22:06:00,
2013-01-05 17:11:00,71.6,67.2,30.20,NNE,30,1.0,3.0,86,0.00,,---,0.00,VWS V14.01,2013-01-05 22:11:00,
2013-01-05 17:16:00,71.6,67.2,30.20,North,357,1.0,3.0,86,0.00,,---,0.00,VWS V14.01,2013-01-05 22:16:00,
2013-01-05 17:21:00,71.5,67.1,30.20,North,9,0.0,4.0,86,0.00,,---,0.00,VWS V14.01,2013-01-05 22:21:00,
2013-01-05 17:26:00,71.4,67.0,30.20,NNW,337,0.0,4.0,86,0.00,,---,0.00,VWS V14.01,2013-01-05 22:26:00,
2013-01-05 17:31:00,71.3,67.2,30.21,NNW,332,0.0,4.0,87,0.00,,---,0.00,VWS V14.01,2013-01-05 22:31:00,
2013-01-05 17:37:00,71.2,66.8,30.20,NNW,348,0.0,2.0,86,0.00,,---,0.00,VWS V14.01,2013-01-05 22:37:00,
2013-01-05 17:42:00,71.1,67.0,30.21,NNW,342,0.0,2.0,87,0.00,,---,0.00,VWS V14.01,2013-01-05 22:42:00,
2013-01-05 17:47:00,71.0,66.9,30.21,NNE,20,1.0,3.0,87,0.00,,---,0.00,VWS V14.01,2013-01-05 22:47:00,
2013-01-05 17:52:00,70.8,66.7,30.20,NE,54,1.0,3.0,87,0.00,,---,0.00,VWS V14.01,2013-01-05 22:52:00,
2013-01-05 17:57:00,70.7,67.0,30.21,NNW,346,0.0,3.0,88,0.00,,---,0.00,VWS V14.01,2013-01-05 22:57:00,
2013-01-05 18:02:00,70.6,66.9,30.21,East,91,4.0,4.0,88,0.00,,---,0.00,VWS V14.01,2013-01-05 23:02:00,
2013-01-05 18:07:00,70.3,66.9,30.21,NE,50,1.0,6.0,89,0.00,,---,0.00,VWS V14.01,2013-01-05 23:07:00,
2013-01-05 18:12:00,69.9,67.2,30.21,ENE,70,0.0,6.0,91,0.02,,---,0.02,VWS V14.01,2013-01-05 23:12:00,
2013-01-05 18:17:00,69.6,67.2,30.21,ENE,77,0.0,6.0,92,0.04,,---,0.04,VWS V14.01,2013-01-05 23:17:00,
2013-01-05 18:22:00,69.1,67.0,30.22,North,1,0.0,6.0,93,0.06,,---,0.06,VWS V14.01,2013-01-05 23:22:00,
2013-01-05 18:28:00,68.8,67.0,30.22,ENE,63,1.0,6.0,94,0.08,,---,0.08,VWS V14.01,2013-01-05 23:28:00,
2013-01-05 18:33:00,68.5,66.7,30.22,ENE,78,2.0,2.0,94,0.09,,---,0.09,VWS V14.01,2013-01-05 23:33:00,
2013-01-05 18:38:00,68.4,66.9,30.22,NE,47,0.0,2.0,95,0.12,,---,0.12,VWS V14.01,2013-01-05 23:38:00,
2013-01-05 18:43:00,68.3,66.8,30.22,NE,36,2.0,2.0,95,0.13,,---,0.13,VWS V14.01,2013-01-05 23:43:00,
2013-01-05 18:48:00,68.2,66.7,30.22,NE,51,0.0,3.0,95,0.14,,---,0.14,VWS V14.01,2013-01-05 23:48:00,
2013-01-05 18:53:00,68.2,67.0,30.22,East,85,0.0,3.0,96,0.15,,---,0.15,VWS V14.01,2013-01-05 23:53:00,
2013-01-05 18:58:00,68.1,66.9,30.22,ENE,70,0.0,3.0,96,0.15,,---,0.15,VWS V14.01,2013-01-05 23:58:00,
2013-01-05 19:03:00,68.2,67.0,30.22,NNW,337,0.0,1.0,96,0.15,,---,0.15,VWS V14.01,2013-01-06 00:03:00,
2013-01-05 19:08:00,68.1,66.9,30.23,NNE,22,0.0,2.0,96,0.15,,---,0.15,VWS V14.01,2013-01-06 00:08:00,
2013-01-05 19:13:00,68.1,66.9,30.23,NE,37,1.0,2.0,96,0.16,,---,0.16,VWS V14.01,2013-01-06 00:13:00,
2013-01-05 19:19:00,68.1,66.9,30.23,NE,56,2.0,3.0,96,0.16,,---,0.16,VWS V14.01,2013-01-06 00:19:00,
2013-01-05 19:24:00,68.1,66.9,30.23,WNW,284,0.0,4.0,96,0.16,,---,0.16,VWS V14.01,2013-01-06 00:24:00,
2013-01-05 19:29:00,68.1,67.2,30.23,NE,51,0.0,4.0,97,0.17,,---,0.17,VWS V14.01,2013-01-06 00:29:00,
2013-01-05 19:34:00,68.1,67.2,30.23,NNE,29,0.0,4.0,97,0.09,,---,0.17,VWS V14.01,2013-01-06 00:34:00,
2013-01-05 19:39:00,68.0,67.1,30.23,NE,44,2.0,4.0,97,0.09,,---,0.17,VWS V14.01,2013-01-06 00:39:00,
2013-01-05 19:44:00,68.0,67.1,30.23,NE,54,0.0,4.0,97,0.09,,---,0.17,VWS V14.01,2013-01-06 00:44:00,
2013-01-05 19:49:00,68.1,67.2,30.23,ENE,74,0.0,4.0,97,0.09,,---,0.17,VWS V14.01,2013-01-06 00:49:00,
2013-01-05 19:54:00,68.1,67.2,30.23,NNE,18,0.0,4.0,97,0.09,,---,0.17,VWS V14.01,2013-01-06 00:54:00,
2013-01-05 19:59:00,68.1,67.2,30.23,ENE,70,0.0,4.0,97,0.09,,---,0.17,VWS V14.01,2013-01-06 00:59:00,
2013-01-05 20:05:00,68.1,67.2,30.23,ENE,58,1.0,2.0,97,0.02,,---,0.17,VWS V14.01,2013-01-06 01:05:00,
2013-01-05 20:10:00,68.2,67.3,30.23,ENE,63,0.0,2.0,97,0.02,,---,0.17,VWS V14.01,2013-01-06 01:10:00,
2013-01-05 20:15:00,68.2,67.3,30.23,NE,44,1.0,2.0,97,0.02,,---,0.17,VWS V14.01,2013-01-06 01:15:00,
2013-01-05 20:20:00,68.3,67.4,30.24,North,9,1.0,2.0,97,0.02,,---,0.17,VWS V14.01,2013-01-06 01:20:00,
2013-01-05 20:25:00,68.4,67.5,30.24,East,82,0.0,2.0,97,0.02,,---,0.17,VWS V14.01,2013-01-06 01:25:00,
2013-01-05 20:30:00,68.4,67.5,30.24,NE,41,0.0,2.0,97,0.02,,---,0.17,VWS V14.01,2013-01-06 01:30:00,
2013-01-05 20:35:00,68.5,67.6,30.24,ENE,64,0.0,3.0,97,0.00,,---,0.17,VWS V14.01,2013-01-06 01:35:00,
2013-01-05 20:40:00,68.5,67.6,30.24,NE,47,1.0,3.0,97,0.00,,---,0.17,VWS V14.01,2013-01-06 01:40:00,
2013-01-05 20:45:00,68.5,67.6,30.24,NE,56,0.0,3.0,97,0.00,,---,0.17,VWS V14.01,2013-01-06 01:45:00,
2013-01-05 20:51:00,68.5,67.6,30.24,NE,56,0.0,3.0,97,0.00,,---,0.17,VWS V14.01,2013-01-06 01:51:00,
2013-01-05 20:56:00,68.5,67.6,30.24,NE,55,0.0,3.0,97,0.00,,---,0.17,VWS V14.01,2013-01-06 01:56:00,
2013-01-05 21:01:00,68.6,68.0,30.24,ENE,60,0.0,3.0,98,0.00,,---,0.17,VWS V14.01,2013-01-06 02:01:00,
2013-01-05 21:06:00,68.6,68.0,30.24,NNW,332,0.0,1.0,98,0.00,,---,0.17,VWS V14.01,2013-01-06 02:06:00,
2013-01-05 21:11:00,68.6,68.0,30.24,NE,36,0.0,3.0,98,0.00,,---,0.17,VWS V14.01,2013-01-06 02:11:00,
2013-01-05 21:16:00,68.6,67.7,30.24,NNE,15,1.0,3.0,97,0.00,,---,0.17,VWS V14.01,2013-01-06 02:16:00,
2013-01-05 21:21:00,68.6,68.0,30.24,NE,54,0.0,3.0,98,0.00,,---,0.17,VWS V14.01,2013-01-06 02:21:00,
2013-01-05 21:26:00,68.6,68.0,30.24,NNE,23,0.0,3.0,98,0.00,,---,0.17,VWS V14.01,2013-01-06 02:26:00,
2013-01-05 21:31:00,68.5,67.9,30.24,ENE,61,1.0,3.0,98,0.00,,---,0.17,VWS V14.01,2013-01-06 02:31:00,
2013-01-05 21:36:00,68.6,68.0,30.24,ENE,57,0.0,3.0,98,0.00,,---,0.17,VWS V14.01,2013-01-06 02:36:00,
2013-01-05 21:41:00,68.5,67.9,30.24,NNE,13,0.0,3.0,98,0.00,,---,0.17,VWS V14.01,2013-01-06 02:41:00,
2013-01-05 21:46:00,68.5,67.9,30.24,NNW,347,1.0,3.0,98,0.00,,---,0.17,VWS V14.01,2013-01-06 02:46:00,
2013-01-05 21:51:00,68.5,67.9,30.24,NE,54,1.0,3.0,98,0.00,,---,0.17,VWS V14.01,2013-01-06 02:51:00,
2013-01-05 21:56:00,68.5,67.9,30.24,North,357,0.0,4.0,98,0.00,,---,0.17,VWS V14.01,2013-01-06 02:56:00,
2013-01-05 22:01:00,68.5,67.9,30.24,NNE,15,0.0,5.0,98,0.00,,---,0.17,VWS V14.01,2013-01-06 03:01:00,
2013-01-05 22:07:00,68.5,67.9,30.24,NE,46,1.0,3.0,98,0.00,,---,0.17,VWS V14.01,2013-01-06 03:07:00,
2013-01-05 22:12:00,68.5,67.9,30.24,ENE,58,0.0,3.0,98,0.00,,---,0.17,VWS V14.01,2013-01-06 03:12:00,
2013-01-05 22:17:00,68.4,67.8,30.24,NNE,29,0.0,3.0,98,0.00,,---,0.17,VWS V14.01,2013-01-06 03:17:00,
2013-01-05 22:22:00,68.4,67.8,30.24,ENE,68,0.0,3.0,98,0.00,,---,0.17,VWS V14.01,2013-01-06 03:22:00,
2013-01-05 22:27:00,68.4,67.8,30.24,ENE,68,0.0,3.0,98,0.00,,---,0.17,VWS V14.01,2013-01-06 03:27:00,
2013-01-05 22:32:00,68.3,67.7,30.24,ENE,67,2.0,2.0,98,0.00,,---,0.17,VWS V14.01,2013-01-06 03:32:00,
2013-01-05 22:37:00,68.3,67.7,30.24,ENE,60,2.0,2.0,98,0.01,,---,0.18,VWS V14.01,2013-01-06 03:37:00,
2013-01-05 22:42:00,68.3,67.7,30.23,NE,40,0.0,2.0,98,0.02,,---,0.19,VWS V14.01,2013-01-06 03:42:00,
2013-01-05 22:47:00,68.2,67.6,30.23,NE,41,0.0,2.0,98,0.02,,---,0.19,VWS V14.01,2013-01-06 03:47:00,
2013-01-05 22:52:00,68.2,67.6,30.23,NE,40,0.0,2.0,98,0.03,,---,0.20,VWS V14.01,2013-01-06 03:52:00,
2013-01-05 22:57:00,68.1,67.5,30.23,NE,41,0.0,2.0,98,0.04,,---,0.21,VWS V14.01,2013-01-06 03:57:00,
2013-01-05 23:03:00,68.1,67.5,30.23,NE,41,0.0,1.0,98,0.06,,---,0.23,VWS V14.01,2013-01-06 04:03:00,
2013-01-05 23:08:00,68.1,67.5,30.23,NE,41,0.0,1.0,98,0.09,,---,0.26,VWS V14.01,2013-01-06 04:08:00,
2013-01-05 23:13:00,68.1,67.5,30.23,NE,41,1.0,1.0,98,0.13,,---,0.30,VWS V14.01,2013-01-06 04:13:00,
2013-01-05 23:18:00,68.0,67.4,30.23,NE,54,0.0,2.0,98,0.15,,---,0.32,VWS V14.01,2013-01-06 04:18:00,
2013-01-05 23:23:00,68.0,67.4,30.23,NE,39,1.0,2.0,98,0.15,,---,0.32,VWS V14.01,2013-01-06 04:23:00,
2013-01-05 23:28:00,68.0,67.4,30.23,NE,43,1.0,3.0,98,0.16,,---,0.33,VWS V14.01,2013-01-06 04:28:00,
2013-01-05 23:33:00,68.0,67.4,30.22,ENE,66,1.0,2.0,98,0.17,,---,0.34,VWS V14.01,2013-01-06 04:33:00,
2013-01-05 23:38:00,68.0,67.4,30.22,ENE,67,2.0,2.0,98,0.18,,---,0.35,VWS V14.01,2013-01-06 04:38:00,
2013-01-05 23:43:00,68.0,67.4,30.22,ENE,70,1.0,3.0,98,0.19,,---,0.36,VWS V14.01,2013-01-06 04:43:00,
2013-01-05 23:48:00,68.0,67.4,30.22,NE,46,1.0,3.0,98,0.20,,---,0.37,VWS V14.01,2013-01-06 04:48:00,
2013-01-05 23:53:00,67.9,67.3,30.22,ENE,59,1.0,3.0,98,0.20,,---,0.37,VWS V14.01,2013-01-06 04:53:00,
2013-01-05 23:58:00,67.9,67.3,30.22,ENE,58,1.0,3.0,98,0.20,,---,0.37,VWS V14.01,2013-01-06 04:58:00,